Temp_Advection
nan nan nan nan nan nan nan nan nan nan nan nan nan nan nan nan nan nan nan nan nan nan
nan 1 0 0 0 0 0 0 0 0 0 0 0 -0 -0 -0 -0 0 0 0 0 nan
nan 1 1 0 0 0 0 0 0 0 0 0 0 -0 -0 -0 0 0 0 -0 -0 nan
nan 1 1 1 1 0 0 0 0 0 0 -0 -0 -0 0 0 -0 -0 0 -0 -0 nan
nan 1 1 1 0 0 0 0 0 -0 -0 0 0 0 -0 -0 -0 -0 -0 0 -0 nan
nan 1 0 0 0 0 0 -0 -0 -0 -0 0 0 0 -0 -0 -0 -0 -0 -0 -0 nan
nan 1 0 0 0 0 -0 -0 -0 0 0 0 0 0 0 -0 -0 -0 0 -0 -0 nan
nan 0 0 0 0 0 -0 -0 0 0 0 0 -0 -0 0 -0 -0 -1 -1 -0 0 nan
nan 0 0 1 0 -0 -0 0 0 0 0 -0 -0 -0 0 0 -1 -0 -1 -1 -0 nan
nan 0 1 0 -0 -0 0 0 0 0 -0 -0 -0 -0 0 0 -0 -0 -0 -0 -0 nan
nan 0 0 -0 -0 -0 0 0 0 -0 -0 -0 -0 -0 0 0 -0 -0 -0 -0 0 nan
nan -0 -0 -0 0 0 0 0 -0 -0 -0 -0 -0 -0 0 0 -0 -0 -0 -0 -0 nan
nan -0 0 0 0 0 0 0 0 -0 -0 -0 -0 -0 -0 -0 -0 -0 -0 -0 -0 nan
nan nan nan nan nan nan nan nan nan nan nan nan nan nan nan nan nan nan nan nan nan nan
Wind_Speed
27 25 23 21 19 16 14 13 12 12 12 11 11 11 11 11 12 13 14 15 16 17
28 26 23 21 18 16 14 13 13 12 12 11 11 11 12 12 13 14 15 15 16 17
27 25 22 20 18 16 14 13 13 12 11 11 11 12 12 13 14 14 15 16 16 18
25 23 20 18 16 14 13 12 11 11 11 11 12 12 13 14 14 14 15 16 17 18
22 20 18 15 13 12 11 11 11 11 11 12 12 13 13 14 14 15 16 16 18 18
24 20 16 13 10 9 9 9 10 11 12 12 12 13 14 14 14 15 16 17 19 20
20 16 13 9 5 6 7 11 13 12 12 12 12 13 14 14 15 16 18 19 21 22
14 11 9 8 9 7 12 11 12 12 12 12 12 13 14 15 17 19 20 21 22 23
13 8 14 12 6 11 13 12 10 11 10 10 11 13 14 13 16 20 21 22 24 24
14 15 10 8 10 13 11 9 8 9 10 10 11 13 13 13 16 19 19 22 25 25
14 9 5 11 11 10 9 8 7 7 8 9 10 13 14 13 16 19 19 22 24 27
5 7 10 10 10 8 7 7 6 6 7 9 10 13 14 13 20 21 23 24 28 33
8 9 10 10 8 7 6 6 5 6 9 11 12 13 14 14 19 24 25 29 34 30
9 9 9 8 7 6 6 6 6 8 9 10 12 13 15 15 19 23 27 31 32 33
Wind_Direction
212 214 215 216 218 220 227 237 249 261 270 275 280 288 294 299 303 306 308 308 308 307
206 208 211 213 216 222 230 240 252 262 268 274 282 288 293 297 303 305 306 306 308 309
203 206 209 213 218 224 233 245 255 261 267 275 282 287 293 296 300 304 306 308 312 313
201 204 207 213 219 228 239 250 256 261 269 277 283 287 290 296 303 307 310 312 312 312
200 205 209 215 223 234 244 251 258 268 275 278 285 289 294 301 306 309 310 311 311 311
198 202 208 216 230 242 253 265 272 275 279 284 286 292 297 302 307 309 310 313 312 313
196 201 206 214 229 259 284 278 270 278 282 286 292 297 299 303 307 307 312 314 316 319
187 188 187 214 241 255 262 272 276 277 282 289 296 299 304 312 317 318 317 317 317 314
186 188 229 228 232 248 259 263 269 277 285 294 300 307 310 312 317 314 313 315 317 318
212 219 215 225 248 251 256 264 272 277 291 306 309 311 315 319 306 310 314 317 320 319
213 204 225 243 246 254 261 266 271 283 299 312 318 319 319 322 316 316 319 323 323 322
200 230 234 241 249 255 262 272 283 297 309 319 324 321 322 341 318 321 327 329 327 326
237 239 239 241 241 249 261 270 285 313 320 323 326 324 336 333 327 324 333 329 322 324
240 240 243 245 243 244 253 269 292 309 314 318 321 336 341 338 326 332 327 320 325 327
Height
1477 1481 1484 1487 1488 1490 1491 1492 1493 1493 1493 1493 1492 1492 1491 1490 1489 1487 1486 1484 1483 1480
1474 1478 1481 1484 1486 1488 1489 1490 1490 1490 1490 1490 1490 1489 1488 1487 1485 1483 1481 1480 1478 1475
1472 1476 1478 1481 1483 1485 1487 1487 1487 1488 1488 1487 1487 1486 1484 1483 1482 1480 1477 1475 1473 1470
1470 1474 1476 1478 1480 1482 1483 1484 1485 1485 1485 1484 1483 1482 1481 1480 1478 1476 1473 1471 1468 1466
1468 1472 1475 1477 1478 1480 1481 1481 1481 1481 1481 1480 1479 1478 1477 1475 1473 1471 1469 1467 1464 1462
1462 1467 1472 1474 1476 1478 1478 1479 1479 1478 1477 1476 1476 1475 1473 1471 1470 1467 1465 1463 1460 1458
1461 1464 1468 1471 1473 1475 1476 1476 1476 1475 1475 1474 1473 1471 1469 1468 1466 1463 1461 1458 1456 1453
1460 1463 1466 1467 1468 1471 1473 1473 1473 1473 1471 1470 1469 1467 1465 1463 1460 1458 1456 1454 1451 1449
1460 1463 1465 1465 1466 1469 1470 1469 1469 1470 1467 1466 1465 1463 1461 1459 1456 1454 1452 1449 1447 1444
1460 1460 1461 1463 1465 1467 1466 1466 1465 1466 1463 1462 1461 1459 1457 1456 1453 1450 1448 1446 1442 1438
1455 1456 1458 1461 1463 1463 1463 1462 1462 1461 1460 1459 1457 1455 1453 1451 1449 1447 1444 1442 1438 1432
1454 1455 1456 1457 1458 1460 1460 1460 1459 1459 1457 1455 1454 1451 1449 1448 1446 1442 1438 1436 1431 1425
1454 1454 1455 1455 1455 1456 1458 1457 1457 1457 1455 1453 1451 1448 1445 1444 1440 1438 1434 1428 1424 1419
1452 1452 1452 1453 1454 1453 1454 1455 1454 1454 1453 1451 1447 1443 1441 1440 1439 1434 1428 1423 1417 1412